Insat 1B

operational
NORAD ID: 14318 Int'l Des: 1983-089 Owner: ISRO Country: IN
HEOCIRCULARGSO

About Insat 1B

Description loading...

Live Position

Loading 3D Globe...

Upcoming Passes

Altitude History

Altitude vs Time

uPlot chart will show altitude changes over time

Two-Line Element Set

1 14318U 83089B 26019.74628248 -.00000342 00000-0 00000-0 0 9994
2 14318 11.3698 327.9980 0012908 261.3589 272.5518 1.00202693123727
Epoch: Jan 19, 2026 • Age: 24 hours

Current Status

Altitude 35801.5 km
Velocity 3.07 km/s
Sub-Earth Point 0.85°N, 113.79°E
Launch Date Aug 30, 1983
Age 42.3 years
Type other

Technical Details

Classification Payload
Mass 1194.00 kg
Dry Mass 550.00 kg
Total Mass 1194.00 kg
Length 2.20 m
Diameter 1.60 m
Span 19.40 m
Shape Box + Pan + Ant
Manufacturer FORDA
Bus Type Insat
Phase Status In Orbit
Owner/State ISRO/IN

Large Constellations

Loading constellations...